全球卫星定位系统 GPS 82星 (NAVSTAR 82 (USA 343))

导读

NAVSTAR 82(USA 343)是美国于2023年1月18日发射的GPS导航卫星,隶属于NAVSTAR导航卫星定时测距全球定位系统。它是美国GPS组网的重要卫星,主要为全球用户提供高精度的定位、导航和定时服务,可广泛应用于交通运输、测绘勘探、应急救援等多个领域,进一步增强了GPS系统的全球服务能力与覆盖稳定性。

基本信息
目录编号:
55268
目录名称:
NAVSTAR 82 (USA 343)
国际标识:
2023-009A
轨道中心:
EARTH
卫星名称:
GPS 82星
卫星全名:
全球卫星定位系统 GPS 82星 (NAVSTAR 82 (USA 343))
卫星状态:
在轨 (已飞行1286 天)
发射日期:
2023-01-18 UTC
国别 :
美国 (US)
星等 :
--
轨道信息
数据来源 国际轨道数据 AOE轨道数据
星历时间 2026-07-26T21:54:17+0800
1天前
查看轨道信息
2026-07-27T10:00:00+0800
19小时前
查看轨道信息
半长轴 26559.872km 26559.845km
偏心率 0.0006195 0.0006164
轨道倾角 55.125° 55.125°
近地点辐角 322.209° 322.864°
升交点赤经 146.971° 146.951°
平近点角 208.680° 211.928°
近地点 20165.281km 20165.336km
远地点 20198.189km 20198.08km
周期 717.957分钟 717.956分钟
每日圈数 2.00569 2.005693
详细信息
平衡模式:
三轴稳定
覆盖范围:
全球
运营商:
美国太空军
运营商所在国:
美国
制造商(研发单位):
洛克希德·马丁公司
制造商所在国:
美国
使用方式:
暂无
工作目标:
提供军用及民用全球定位与导航服务
预期寿命:
15年
卫星简介
全球定位系统(英语:Global Positioning System,通常简称GPS),又称全球卫星定位系统,是美国国防部研制,美国太空军运营与维护的中地球轨道卫星导航系统。它可以为地球表面约98%的地区提供准确的定位、测速和高精度的标准时间。全球定位系统可满足位于全球地面任何一处或近地空间的军事用户连续且精确地确定三维位置、三维运动和时间的需求。该系统包括太空中的31颗GPS人造卫星.该卫星仍在工作。
2D轨道图
3D轨道图
轨道高度分析图
轨道倾角分析图
轨道综合分析图
查看轨道综合分析图